SL-24 DEB

基本信息
目录编号:
39450
目录名称:
SL-24 DEB
国际标识:
2013-066AL
轨道中心:
EARTH
物体状态:
在轨
发射日期:
2013-11-21 UTC
轨道信息
数据来源: 国际轨道数据
星历时间: 2026-09-03T19:54:38+0800
半长轴: 6849.052km
偏心率: 0.0005821
轨道倾角: 97.397°
近地点辐角: 25.327°
升交点赤经: 252.563°
平近点角: 334.826°
近地点: 466.928km
远地点: 474.902km
周期: 94.017分钟
每日圈数: 15.316416
详细信息
发射场:
OREN
轨道高度:
LEO
数据来源:
AOE Integration Group
参考系:
TEME
时间系统:
UTC
历元类型:
SGP4
2D轨道图
3D轨道图
轨道高度分析图
轨道倾角分析图
轨道综合分析图
查看轨道综合分析图